Temp_Advection
nan nan nan nan nan nan nan nan nan nan nan nan nan nan nan nan nan nan nan nan nan nan nan nan nan nan nan nan nan nan nan nan nan nan nan nan nan nan nan nan nan nan nan
nan -0 0 0 0 0 -0 -0 -0 -0 -0 -0 -0 -0 -0 -0 -0 -0 -0 -0 0 -0 -0 -0 -0 -0 0 -0 0 0 0 0 -0 -0 -0 -0 -0 -0 0 0 0 0 nan
nan 0 -0 0 0 0 0 -0 -0 -0 -0 -0 -0 -0 -0 -0 -0 -0 -0 0 0 -0 -0 -0 -0 -0 -0 0 0 0 -0 0 -0 -0 -0 -0 -0 -0 -0 0 0 0 nan
nan 0 0 -0 0 0 0 0 0 -0 -0 -0 -0 -0 -0 -0 -0 0 0 0 0 0 -0 -0 -0 -0 0 -0 -0 0 0 0 0 0 -0 -0 -0 -0 -0 -0 -0 0 nan
nan 0 0 0 0 0 0 -0 0 0 0 0 0 -0 -0 -0 -0 -0 -0 0 0 0 0 -0 0 0 0 0 0 0 0 0 0 0 0 0 -0 -0 -0 -0 0 -0 nan
nan 0 0 0 0 -0 -0 -0 0 0 0 -0 0 -0 -0 -0 -0 -0 -0 -0 0 0 0 -0 -0 -0 0 0 0 0 0 0 0 0 0 0 -0 -0 -0 -0 -0 0 nan
nan 0 0 -0 -0 -0 -0 -0 -0 -0 -0 -0 -0 -0 -0 0 -0 -0 -0 0 0 0 0 -0 -0 -0 -0 0 0 0 -0 -0 0 0 0 0 -0 -0 -0 -0 -0 -0 nan
nan 0 0 0 0 0 -0 -0 -0 -0 -0 -0 -0 -0 -0 -0 -0 -0 -0 -0 0 0 -0 -0 0 0 -0 -0 -0 0 0 -0 0 0 0 0 -0 -0 -0 -0 -0 0 nan
nan 0 0 0 0 0 0 0 -0 -0 -0 -0 -0 0 -0 -0 -0 -0 -0 -0 -0 0 0 -0 -0 0 0 0 -0 -0 -0 0 0 0 0 0 0 -0 -0 -0 -0 -0 nan
nan 0 -0 -0 -0 -0 0 0 0 0 0 0 -0 0 -0 -0 -0 -0 -0 -0 -0 -0 -0 -0 0 0 0 0 0 -0 -0 -0 0 0 0 0 0 0 -0 -0 -0 -0 nan
nan -0 -0 -0 0 0 -0 -0 0 0 0 0 0 0 0 -0 -0 0 0 -0 -0 -0 -0 -0 -0 -0 -0 0 0 0 0 -0 -0 -0 0 1 0 0 -0 -0 -0 -0 nan
nan -0 -0 -0 0 0 0 0 0 0 0 -0 0 0 0 0 0 0 -0 -0 -0 -0 -0 -0 -0 -0 -0 -0 -0 -0 -0 0 0 -0 -0 -0 0 0 0 -0 -0 -0 nan
nan -0 -0 0 0 0 0 0 0 0 0 -0 0 0 0 0 -0 0 0 0 0 -0 -0 -0 -0 0 -0 -0 -0 -0 -0 -0 -0 -0 -0 0 -0 0 1 -0 -0 -0 nan
nan -0 0 0 0 -0 0 0 0 0 0 0 -0 -0 0 0 -0 -0 0 0 0 0 -0 -0 -0 -0 -0 -0 -0 -0 -0 0 -0 -0 -0 -0 -0 0 0 0 -0 -0 nan
nan 0 0 0 0 -0 -0 0 0 0 0 0 0 0 -0 -0 -0 -0 -0 -0 0 0 0 0 0 -0 -0 -0 -0 -0 -0 -0 -0 0 -0 -0 -0 -0 0 0 -0 -0 nan
nan 0 0 -0 -0 -0 -0 -0 0 0 0 0 0 0 0 0 0 -0 -0 -1 -0 -0 0 0 0 0 -0 -0 -0 -0 -0 -0 -0 0 -0 -0 0 -0 -0 0 0 0 nan
nan -0 -0 -0 -0 -0 -0 -0 -0 0 0 0 0 0 0 0 0 -0 -1 -1 -0 -0 -0 -0 0 0 0 0 -0 -1 -0 -0 -0 0 0 -0 -0 -0 0 0 -0 0 nan
nan 0 -0 -0 -0 -0 -0 -0 -0 -0 0 0 0 0 0 0 0 -0 -0 -1 -0 -0 0 0 -0 -0 -0 -0 -0 -0 -0 -1 -1 -1 -0 0 0 -0 -0 -0 -0 -0 nan
nan 0 0 0 -0 -0 -0 -0 -0 -0 -0 -0 -0 0 0 0 0 -0 -0 -0 -0 -0 0 0 0 -0 -0 -0 -0 -0 -0 -0 -0 -1 -1 -1 -0 -0 0 -0 -0 0 nan
nan 0 0 0 -0 -0 -0 -0 0 0 0 0 0 0 0 0 0 -0 -0 -0 -0 -0 -0 -0 -0 -0 -0 -0 -0 -0 -0 -0 -0 -0 -1 -1 -1 -1 -0 -0 -0 -0 nan
nan 1 0 0 -0 -0 -0 -0 -0 0 0 0 0 0 0 0 1 0 -1 -0 -0 -0 -0 -0 -0 -0 -0 -0 -0 -0 -0 -0 -0 -0 -0 -0 -0 -0 -0 -1 -0 -1 nan
nan 0 0 0 -0 -0 -0 -0 -0 -0 -0 -0 -0 -0 -0 0 0 0 -0 -0 -0 -0 0 0 -0 -0 -0 -0 -0 -0 -0 -1 -1 -0 -0 -0 -0 -0 -0 -0 -0 -0 nan
nan 0 0 0 -0 -0 -0 -0 -0 -0 -0 -0 -0 0 0 0 0 0 0 -0 -0 -0 0 0 0 -0 -0 -0 0 0 -0 -0 -1 -1 -1 -0 -0 -0 -0 -1 -0 0 nan
nan 0 0 0 -0 -0 -0 -0 -0 -0 0 0 -0 0 0 0 0 0 0 -0 -0 -0 -0 0 0 0 -0 -0 -0 0 0 0 0 -1 -2 -1 -0 -0 -0 -0 -1 -0 nan
nan 0 0 -0 0 0 0 0 -0 -0 0 0 0 0 -0 0 0 -0 -0 -0 0 0 0 -0 -0 0 -0 -0 -0 -0 -0 -0 0 0 -1 -2 -1 -0 -0 -0 -0 -0 nan
nan nan nan nan nan nan nan nan nan nan nan nan nan nan nan nan nan nan nan nan nan nan nan nan nan nan nan nan nan nan nan nan nan nan nan nan nan nan nan nan nan nan nan
Wind_Speed
4 1 4 5 5 5 4 4 4 5 6 7 8 7 7 6 6 5 7 8 9 10 7 5 5 6 5 2 2 3 5 3 4 5 6 6 6 3 2 1 0 4 3
5 4 3 4 4 3 3 3 4 4 5 6 7 7 6 5 5 5 4 5 5 7 7 6 4 2 1 0 0 2 3 3 4 5 5 4 7 5 2 1 1 2 4
6 4 3 3 3 4 3 2 2 3 4 4 5 6 6 4 3 2 1 2 1 1 5 6 5 4 1 1 1 1 4 3 1 2 4 4 5 8 5 3 3 2 3
7 5 5 3 3 3 2 1 1 1 2 3 4 5 5 5 4 3 2 2 2 4 2 5 5 4 3 2 3 3 4 3 2 0 2 6 5 6 6 4 4 3 3
8 6 5 2 1 2 2 2 1 1 2 2 3 3 4 4 4 4 4 4 4 4 6 6 7 6 5 6 4 5 6 6 5 4 4 5 8 8 6 6 5 3 3
8 6 3 3 1 0 1 2 3 3 4 5 5 5 5 5 5 5 4 4 5 7 7 7 8 8 7 7 7 6 8 8 7 6 6 4 11 13 10 8 7 6 5
11 7 5 2 1 2 2 2 2 4 6 6 7 8 8 8 7 7 7 6 7 8 9 10 9 8 8 8 8 7 9 9 9 9 9 8 12 12 11 10 9 8 7
9 7 6 5 3 2 3 4 4 5 6 7 8 10 11 11 10 10 10 9 9 9 10 11 10 10 10 9 9 11 12 12 12 11 12 12 12 15 14 12 12 11 10
7 6 5 4 4 5 5 5 7 8 8 9 8 10 12 12 12 13 13 13 13 13 14 14 13 13 13 13 12 13 15 14 15 14 14 15 14 17 17 15 14 13 12
6 5 5 5 6 7 7 7 8 9 10 11 11 11 13 13 12 13 15 16 15 16 17 17 17 16 16 16 16 17 17 18 19 18 18 18 18 17 20 18 16 15 15
8 8 6 7 7 7 10 11 10 11 12 12 13 13 13 15 13 11 13 15 16 17 19 18 19 20 20 20 20 20 20 22 21 21 21 20 21 23 23 22 20 18 17
8 7 7 8 9 10 11 11 11 11 13 13 14 15 16 16 16 16 15 16 20 20 19 21 22 23 24 25 24 23 25 25 26 26 24 22 23 27 27 24 22 21 20
9 9 9 9 10 11 10 11 13 14 15 16 14 14 17 20 20 19 20 22 21 20 21 21 20 21 22 22 20 21 22 22 23 24 26 22 22 26 24 26 27 25 24
11 11 11 11 11 12 11 11 12 13 15 17 18 18 18 19 21 21 22 22 22 21 21 20 22 23 23 24 24 24 25 26 25 25 25 25 23 22 24 28 28 28 28
13 12 12 12 12 12 12 14 15 17 18 19 20 21 22 23 24 24 24 24 24 25 24 22 22 25 25 28 27 27 28 28 28 29 30 27 25 24 26 28 31 30 28
14 13 12 12 12 13 15 17 18 19 20 21 21 22 23 24 25 25 26 27 27 26 27 29 30 27 26 27 30 31 30 30 33 34 33 31 31 32 32 32 33 34 32
15 14 13 13 13 15 16 18 19 20 20 20 20 20 22 23 24 25 27 27 28 27 28 27 27 29 31 28 29 30 31 34 34 33 33 36 35 34 34 35 37 35 35
16 16 16 15 15 16 17 17 17 16 16 16 17 16 16 18 19 21 23 23 23 24 25 26 25 25 26 27 29 28 29 27 29 33 33 34 35 37 36 36 38 38 38
16 16 16 16 16 16 15 14 15 15 16 17 17 18 19 19 18 18 18 16 16 17 19 21 24 25 26 26 27 27 26 27 29 29 32 35 36 37 38 39 40 41 42
17 18 17 17 15 12 12 13 14 15 16 17 19 19 18 18 18 16 14 12 12 11 11 12 16 19 21 23 24 24 25 27 29 28 30 30 31 32 34 35 39 40 38
19 18 18 15 10 10 11 12 13 14 14 15 17 17 16 14 14 12 12 10 10 10 9 9 11 12 13 13 17 20 22 23 23 22 18 18 21 24 28 30 32 37 39
18 19 15 9 8 10 11 13 15 16 17 18 19 18 15 11 10 11 10 11 8 9 8 7 8 11 11 11 16 20 16 25 14 13 18 21 29 28 29 29 30 31 31
18 16 10 8 9 10 11 13 15 17 18 19 19 18 13 11 9 11 10 10 10 9 9 8 8 10 14 12 13 13 11 6 30 27 28 23 24 23 23 25 28 25 29
11 9 8 8 9 11 12 14 16 18 20 20 20 19 15 12 12 10 10 11 10 9 9 9 8 10 12 15 15 13 15 19 22 18 26 29 24 24 23 24 21 24 28
8 7 8 9 10 12 13 15 16 18 20 20 19 19 19 15 13 12 12 12 10 10 9 10 11 10 11 14 16 19 20 21 20 20 24 31 27 25 21 20 21 23 27
8 8 9 11 11 12 15 16 17 18 19 19 17 17 18 17 13 11 11 12 12 11 10 11 11 12 13 15 16 17 19 20 23 21 23 30 28 25 23 19 18 17 13
Wind_Direction
149 216 159 152 146 130 114 91 70 58 48 43 42 45 56 65 82 68 76 74 67 63 64 69 75 83 105 119 75 141 168 127 51 41 39 40 36 62 122 165 337 193 218
147 139 152 153 146 138 119 94 78 65 53 47 42 46 54 66 76 72 71 70 65 54 52 50 50 54 166 246 44 168 162 178 20 24 23 33 22 7 345 282 300 321 238
163 172 120 159 156 151 139 109 65 52 41 37 37 37 40 45 57 76 76 53 26 322 32 30 25 8 108 204 187 143 151 170 349 15 354 355 33 357 341 321 300 278 246
158 173 175 131 161 159 160 159 137 35 8 8 15 21 19 15 11 14 328 295 283 240 326 354 354 346 301 233 230 224 209 205 182 168 328 314 325 334 332 317 304 292 275
165 166 187 187 171 172 190 217 264 323 304 299 308 333 345 350 354 339 313 294 282 262 265 311 327 326 301 278 260 242 229 216 211 221 231 281 294 295 308 308 299 290 300
172 174 214 239 238 9 309 303 304 310 306 302 296 295 305 311 311 318 307 285 276 269 265 282 304 313 302 285 270 260 242 235 234 229 240 237 273 280 292 296 294 286 281
162 184 197 152 80 46 14 340 330 324 313 307 302 295 293 294 295 295 300 298 288 276 274 276 282 295 296 287 270 260 256 244 240 238 244 254 277 280 278 282 280 276 272
160 168 167 187 238 289 302 308 298 310 313 312 318 314 304 298 295 291 291 291 291 286 284 281 275 280 285 288 279 264 259 256 248 246 246 246 260 284 283 278 274 271 265
177 184 189 208 231 259 280 294 298 299 298 297 290 299 305 299 294 291 289 286 285 283 281 281 279 276 277 278 279 275 269 264 261 254 244 247 253 273 284 276 275 268 266
192 212 234 252 274 286 289 284 285 286 285 288 284 283 289 292 297 294 291 288 284 284 280 277 277 277 277 277 274 273 273 270 265 261 255 249 255 257 270 274 274 270 265
225 239 244 258 262 266 274 280 292 290 283 278 279 274 279 284 287 284 287 291 289 288 289 283 279 279 279 278 275 274 273 271 270 267 262 257 249 256 261 269 269 269 265
229 237 249 259 266 269 272 282 281 279 284 288 287 279 275 275 275 276 277 279 277 290 291 290 288 284 280 279 279 280 279 281 279 272 267 264 257 252 258 265 267 267 264
244 257 262 269 272 275 277 279 280 281 284 288 288 276 271 273 277 273 268 266 268 273 281 285 287 284 283 284 280 279 278 279 285 282 274 272 267 253 254 264 271 269 266
256 267 272 274 279 284 288 288 289 288 285 287 287 285 281 277 275 275 271 267 266 265 269 272 279 282 282 279 275 277 277 277 276 279 282 276 271 268 256 262 273 274 268
258 265 271 277 283 290 296 297 296 295 292 287 284 283 283 282 280 278 273 268 262 257 258 262 263 266 275 277 280 282 282 281 281 277 275 274 268 265 270 263 270 274 273
257 264 274 279 287 296 300 303 303 299 295 291 287 284 282 281 279 277 276 274 272 267 259 257 259 262 266 267 269 268 268 275 277 279 276 271 264 264 260 262 264 269 270
260 272 278 284 291 300 304 305 304 303 300 297 293 287 283 284 284 280 279 279 279 277 275 270 264 264 264 266 273 271 269 271 271 270 275 273 274 268 263 260 258 259 263
262 268 273 283 297 303 308 311 312 309 305 298 296 297 292 289 284 284 286 286 285 280 273 269 269 270 269 269 274 280 286 284 279 277 276 272 273 272 270 266 262 261 262
258 260 273 288 296 307 316 320 320 319 317 312 305 298 295 287 286 289 291 295 298 293 284 273 267 268 274 276 276 276 278 283 286 286 284 281 278 277 274 274 270 266 261
264 271 279 285 298 309 318 322 325 325 323 316 307 300 288 280 279 283 289 298 302 309 311 297 283 278 278 280 280 281 281 284 286 290 293 292 293 290 286 285 274 272 269
260 273 277 285 294 309 318 322 328 332 334 331 325 314 298 290 283 284 294 293 301 302 305 311 306 298 295 296 297 292 288 290 295 304 305 299 304 300 293 288 282 273 270
257 273 277 274 292 308 318 330 337 337 338 338 334 328 315 300 282 280 289 294 292 291 289 299 313 313 306 311 307 308 314 314 326 306 299 293 300 306 301 301 298 282 281
266 273 259 266 291 305 319 331 337 342 340 340 342 337 326 307 288 273 277 286 288 282 286 289 296 300 301 301 305 311 322 304 318 321 318 326 324 319 311 303 301 304 295
254 242 249 277 291 303 316 329 336 339 339 343 346 346 338 320 299 290 271 269 283 281 278 280 278 285 289 297 299 298 298 303 311 317 316 321 322 327 319 323 301 300 304
243 257 261 280 290 304 316 321 328 333 336 337 340 345 346 330 316 299 285 280 274 268 268 274 278 283 289 296 301 304 304 306 309 314 313 321 327 328 331 313 316 312 273
255 259 270 281 292 302 314 316 316 322 327 330 331 335 346 353 336 319 302 284 280 275 267 266 275 285 286 287 291 294 300 310 311 316 312 315 323 325 333 318 311 318 314
Height
1554 1554 1554 1555 1555 1555 1556 1556 1556 1556 1556 1556 1555 1554 1554 1554 1554 1554 1554 1554 1554 1553 1552 1552 1552 1552 1552 1552 1552 1552 1552 1552 1552 1551 1551 1550 1550 1549 1548 1548 1548 1548 1548
1553 1555 1555 1555 1555 1556 1556 1556 1557 1556 1556 1556 1556 1555 1555 1554 1554 1554 1554 1554 1554 1554 1553 1552 1552 1552 1552 1552 1552 1552 1552 1552 1552 1551 1551 1551 1550 1550 1549 1548 1547 1547 1547
1554 1554 1555 1555 1555 1556 1556 1556 1557 1557 1557 1557 1556 1556 1555 1555 1555 1555 1555 1555 1555 1554 1554 1553 1553 1552 1551 1552 1552 1552 1552 1552 1552 1551 1551 1550 1550 1550 1549 1548 1547 1547 1546
1553 1554 1555 1555 1555 1556 1556 1556 1556 1556 1556 1557 1556 1556 1556 1555 1555 1555 1555 1554 1554 1554 1554 1553 1552 1552 1552 1551 1551 1552 1552 1552 1552 1551 1550 1549 1549 1549 1549 1548 1548 1547 1546
1553 1554 1555 1555 1555 1555 1555 1556 1556 1556 1556 1556 1556 1556 1556 1555 1555 1555 1554 1554 1554 1553 1553 1553 1552 1552 1551 1550 1550 1551 1551 1551 1552 1551 1550 1549 1548 1549 1548 1548 1547 1546 1546
1553 1554 1555 1556 1556 1556 1556 1556 1555 1556 1555 1555 1555 1555 1555 1555 1554 1554 1553 1553 1552 1552 1552 1552 1551 1551 1550 1550 1549 1549 1550 1550 1550 1550 1550 1549 1549 1548 1548 1547 1546 1546 1545
1553 1554 1555 1556 1556 1556 1556 1555 1555 1555 1555 1555 1555 1554 1554 1553 1553 1553 1552 1552 1551 1551 1550 1550 1550 1550 1549 1549 1548 1548 1548 1548 1548 1548 1548 1548 1548 1547 1547 1546 1546 1545 1544
1553 1554 1554 1555 1555 1555 1555 1555 1554 1554 1554 1554 1554 1553 1553 1552 1552 1551 1551 1550 1550 1549 1549 1548 1548 1548 1548 1547 1547 1546 1546 1546 1546 1546 1546 1545 1545 1545 1545 1545 1545 1544 1544
1553 1553 1553 1553 1554 1554 1554 1554 1553 1553 1552 1552 1552 1552 1551 1550 1550 1549 1549 1548 1548 1547 1547 1546 1546 1546 1546 1545 1545 1544 1544 1544 1543 1544 1544 1543 1542 1543 1543 1543 1543 1543 1542
1552 1552 1552 1552 1552 1552 1552 1552 1551 1551 1550 1550 1549 1549 1549 1548 1547 1547 1546 1545 1545 1544 1544 1543 1543 1543 1543 1543 1542 1542 1541 1541 1540 1540 1541 1541 1540 1540 1540 1540 1540 1540 1540
1550 1551 1551 1551 1551 1551 1549 1549 1549 1548 1548 1547 1547 1546 1545 1545 1544 1543 1543 1543 1542 1541 1541 1540 1540 1540 1540 1539 1539 1538 1538 1537 1537 1537 1537 1538 1538 1537 1537 1537 1537 1537 1537
1548 1549 1549 1549 1549 1549 1548 1547 1547 1545 1544 1544 1543 1543 1541 1540 1540 1540 1539 1539 1538 1537 1537 1536 1536 1536 1536 1535 1535 1535 1534 1533 1533 1532 1532 1533 1534 1533 1534 1533 1534 1533 1533
1547 1548 1547 1547 1547 1546 1546 1545 1544 1543 1542 1541 1540 1539 1538 1537 1536 1536 1535 1535 1534 1533 1532 1532 1532 1531 1531 1530 1530 1530 1530 1529 1529 1528 1528 1528 1528 1529 1529 1529 1530 1530 1530
1544 1544 1544 1544 1544 1544 1543 1543 1542 1540 1539 1537 1536 1535 1534 1533 1531 1531 1530 1530 1529 1529 1528 1527 1527 1527 1526 1526 1525 1524 1524 1524 1524 1523 1523 1524 1524 1524 1524 1524 1525 1525 1526
1541 1542 1542 1542 1542 1541 1541 1540 1539 1537 1536 1534 1532 1530 1529 1527 1525 1524 1523 1523 1523 1523 1523 1522 1521 1521 1521 1520 1520 1519 1519 1519 1518 1518 1517 1518 1519 1518 1518 1519 1519 1520 1520
1539 1539 1540 1539 1539 1539 1538 1536 1534 1532 1530 1528 1526 1525 1523 1521 1519 1518 1516 1516 1516 1516 1516 1515 1515 1515 1514 1514 1513 1514 1514 1514 1514 1513 1512 1512 1513 1513 1513 1513 1513 1513 1513
1536 1536 1537 1537 1537 1536 1535 1533 1530 1528 1525 1523 1521 1519 1517 1516 1514 1512 1511 1510 1510 1510 1509 1508 1508 1508 1508 1508 1507 1508 1507 1507 1506 1506 1506 1505 1506 1506 1506 1506 1506 1505 1506
1534 1534 1534 1534 1534 1532 1531 1529 1526 1524 1522 1519 1517 1515 1513 1511 1509 1507 1506 1505 1504 1503 1502 1502 1502 1502 1501 1501 1501 1501 1501 1500 1499 1499 1497 1497 1497 1497 1498 1498 1499 1498 1498
1532 1531 1531 1531 1530 1529 1527 1525 1524 1522 1519 1516 1514 1512 1510 1507 1506 1504 1502 1501 1500 1498 1497 1497 1496 1497 1496 1496 1496 1496 1495 1494 1493 1492 1490 1490 1489 1489 1489 1489 1489 1489 1490
1528 1528 1529 1528 1528 1527 1525 1523 1521 1519 1516 1513 1510 1508 1505 1503 1502 1501 1499 1498 1497 1495 1494 1493 1493 1492 1492 1491 1490 1489 1489 1489 1487 1486 1484 1483 1482 1480 1479 1479 1479 1479 1480
1524 1525 1526 1526 1526 1525 1523 1521 1519 1516 1513 1511 1507 1503 1500 1499 1498 1497 1496 1495 1494 1493 1492 1491 1490 1489 1488 1488 1486 1485 1483 1483 1482 1481 1479 1477 1475 1473 1472 1470 1469 1469 1469
1522 1522 1523 1524 1523 1523 1521 1519 1516 1514 1511 1508 1504 1500 1497 1495 1495 1494 1493 1493 1492 1491 1491 1490 1489 1488 1486 1486 1484 1482 1478 1478 1476 1477 1476 1474 1471 1469 1467 1464 1462 1460 1460
1520 1520 1521 1521 1521 1520 1519 1517 1515 1511 1508 1505 1501 1498 1495 1493 1492 1491 1491 1490 1490 1490 1489 1488 1487 1486 1484 1484 1484 1483 1478 1476 1473 1469 1469 1468 1467 1464 1461 1459 1457 1455 1453
1517 1518 1519 1519 1519 1518 1517 1514 1512 1509 1506 1502 1499 1496 1493 1491 1489 1488 1488 1487 1487 1487 1487 1486 1485 1484 1483 1480 1479 1480 1479 1477 1473 1467 1463 1463 1461 1458 1457 1454 1452 1449 1447
1515 1516 1517 1517 1516 1515 1514 1511 1509 1507 1504 1501 1498 1495 1492 1488 1486 1485 1485 1485 1484 1484 1483 1483 1482 1481 1480 1479 1477 1475 1474 1472 1471 1469 1461 1457 1455 1455 1454 1451 1448 1443 1441
1513 1514 1515 1515 1514 1512 1511 1509 1507 1505 1503 1500 1497 1494 1491 1487 1485 1483 1482 1481 1481 1480 1480 1480 1479 1478 1477 1476 1475 1473 1471 1469 1467 1466 1462 1458 1456 1453 1451 1447 1445 1442 1435